Time,TemperatureF,DewpointF,PressureIn,WindDirection,WindDirectionDegrees,WindSpeedMPH,WindSpeedGustMPH,Humidity,HourlyPrecipIn,Conditions,Clouds,dailyrainin,SoftwareType,DateUTC
2013-10-03 00:23:00,59.0,59.0,29.84,North,350,7.0,-999.0,100,-99.99,,,-99.99,,2013-10-03 05:23:00,
2013-10-03 00:43:00,57.0,57.0,29.84,North,350,6.0,-999.0,100,-99.99,,,-99.99,,2013-10-03 05:43:00,
2013-10-03 01:22:00,57.0,57.0,29.85,North,0,0.0,-999.0,100,-99.99,,,-99.99,,2013-10-03 06:22:00,
2013-10-03 01:42:00,57.0,57.0,29.85,North,0,0.0,-999.0,100,-99.99,,,-99.99,,2013-10-03 06:42:00,
2013-10-03 01:52:00,57.0,57.0,29.84,North,350,5.0,-999.0,100,-99.99,,,-99.99,,2013-10-03 06:52:00,
2013-10-03 02:02:00,57.0,57.0,29.84,North,350,5.0,-999.0,100,-99.99,,,-99.99,,2013-10-03 07:02:00,
2013-10-03 02:11:00,57.0,57.0,29.84,North,350,5.0,-999.0,100,-99.99,,,-99.99,,2013-10-03 07:11:00,
2013-10-03 02:22:00,57.0,57.0,29.84,North,350,5.0,-999.0,100,-99.99,,,-99.99,,2013-10-03 07:22:00,
2013-10-03 02:42:00,57.0,57.0,29.84,North,10,10.0,-999.0,100,-99.99,,,-99.99,,2013-10-03 07:42:00,
2013-10-03 02:52:00,57.0,57.0,29.84,North,10,10.0,-999.0,100,-99.99,,,-99.99,,2013-10-03 07:52:00,
2013-10-03 03:03:00,57.0,57.0,29.84,North,10,10.0,-999.0,100,-99.99,,,-99.99,,2013-10-03 08:03:00,
2013-10-03 03:12:00,57.0,57.0,29.84,North,10,10.0,-999.0,100,-99.99,,,-99.99,,2013-10-03 08:12:00,
2013-10-03 03:22:00,57.0,57.0,29.84,North,10,10.0,-999.0,100,-99.99,,,-99.99,,2013-10-03 08:22:00,
2013-10-03 03:42:00,55.0,55.0,29.84,North,350,9.0,-999.0,100,-99.99,,,-99.99,,2013-10-03 08:42:00,
2013-10-03 04:22:00,55.0,55.0,29.83,NNE,20,9.0,-999.0,100,-99.99,,,-99.99,,2013-10-03 09:22:00,
2013-10-03 04:43:00,55.0,55.0,29.83,North,360,10.0,-999.0,100,-99.99,,,-99.99,,2013-10-03 09:43:00,
2013-10-03 05:23:00,54.0,54.0,29.84,North,10,7.0,-999.0,100,-99.99,,,-99.99,,2013-10-03 10:23:00,
2013-10-03 05:43:00,54.0,54.0,29.84,NNE,20,8.0,-999.0,100,-99.99,,,-99.99,,2013-10-03 10:43:00,
2013-10-03 05:52:00,54.0,54.0,29.84,NNE,20,9.0,-999.0,100,-99.99,,,-99.99,,2013-10-03 10:52:00,
2013-10-03 06:03:00,54.0,54.0,29.84,NNE,20,9.0,-999.0,100,-99.99,,,-99.99,,2013-10-03 11:03:00,
2013-10-03 06:23:00,54.0,54.0,29.84,North,10,9.0,-999.0,100,-99.99,,,-99.99,,2013-10-03 11:23:00,
2013-10-03 06:42:00,54.0,54.0,29.84,North,10,9.0,-999.0,100,-99.99,,,-99.99,,2013-10-03 11:42:00,
2013-10-03 06:52:00,54.0,54.0,29.83,North,10,9.0,-999.0,100,-99.99,,,-99.99,,2013-10-03 11:52:00,
2013-10-03 07:01:00,54.0,54.0,29.83,North,10,9.0,-999.0,100,-99.99,,,-99.99,,2013-10-03 12:01:00,
2013-10-03 07:12:00,54.0,54.0,29.83,North,10,9.0,-999.0,100,-99.99,,,-99.99,,2013-10-03 12:12:00,
2013-10-03 07:22:00,54.0,54.0,29.83,North,10,9.0,-999.0,100,-99.99,,,-99.99,,2013-10-03 12:22:00,
2013-10-03 07:42:00,54.0,54.0,29.83,NNE,20,7.0,-999.0,100,-99.99,,,-99.99,,2013-10-03 12:42:00,
2013-10-03 07:52:00,54.0,54.0,29.83,NNE,30,7.0,-999.0,100,-99.99,,,-99.99,,2013-10-03 12:52:00,
2013-10-03 08:01:00,54.0,54.0,29.83,NNE,30,7.0,-999.0,100,-99.99,,,-99.99,,2013-10-03 13:01:00,
2013-10-03 08:11:00,54.0,54.0,29.83,NNE,30,7.0,-999.0,100,-99.99,,,-99.99,,2013-10-03 13:11:00,
2013-10-03 08:22:00,54.0,54.0,29.83,NNE,30,7.0,-999.0,100,-99.99,,,-99.99,,2013-10-03 13:22:00,
2013-10-03 08:42:00,55.0,55.0,29.83,NNE,30,7.0,-999.0,100,-99.99,,,-99.99,,2013-10-03 13:42:00,
2013-10-03 09:11:00,55.0,55.0,29.84,NNE,20,7.0,-999.0,100,-99.99,,,-99.99,,2013-10-03 14:11:00,
2013-10-03 09:22:00,55.0,55.0,29.84,NNE,20,7.0,-999.0,100,-99.99,,,-99.99,,2013-10-03 14:22:00,
2013-10-03 09:42:00,55.0,55.0,29.84,NNE,20,7.0,-999.0,100,-99.99,,,-99.99,,2013-10-03 14:42:00,
2013-10-03 09:52:00,55.0,55.0,29.84,NNE,20,9.0,-999.0,100,-99.99,,,-99.99,,2013-10-03 14:52:00,
2013-10-03 10:01:00,55.0,55.0,29.84,NNE,20,9.0,-999.0,100,-99.99,,,-99.99,,2013-10-03 15:01:00,
2013-10-03 10:22:00,55.0,55.0,29.84,NNE,20,8.0,-999.0,100,-99.99,,,-99.99,,2013-10-03 15:22:00,
2013-10-03 10:43:00,57.0,57.0,29.83,NNE,30,10.0,-999.0,100,-99.99,,,-99.99,,2013-10-03 15:43:00,
2013-10-03 10:53:00,57.0,57.0,29.84,NE,50,9.0,-999.0,100,-99.99,,,-99.99,,2013-10-03 15:53:00,
2013-10-03 11:03:00,57.0,57.0,29.84,NE,50,9.0,-999.0,100,-99.99,,,-99.99,,2013-10-03 16:03:00,
2013-10-03 11:23:00,57.0,57.0,29.85,NE,40,6.0,-999.0,100,-99.99,,,-99.99,,2013-10-03 16:23:00,
2013-10-03 11:42:00,57.0,57.0,29.86,NE,40,8.0,-999.0,100,-99.99,,,-99.99,,2013-10-03 16:42:00,
2013-10-03 11:53:00,57.0,57.0,29.87,NE,40,5.0,-999.0,100,-99.99,,,-99.99,,2013-10-03 16:53:00,
2013-10-03 12:03:00,57.0,57.0,29.87,NE,40,5.0,-999.0,100,-99.99,,,-99.99,,2013-10-03 17:03:00,
2013-10-03 12:22:00,57.0,57.0,29.87,NNE,20,6.0,-999.0,100,-99.99,,,-99.99,,2013-10-03 17:22:00,
2013-10-03 12:42:00,57.0,57.0,29.87,North,10,7.0,-999.0,100,-99.99,,,-99.99,,2013-10-03 17:42:00,
2013-10-03 13:12:00,57.0,57.0,29.87,NNW,340,8.0,-999.0,100,-99.99,,,-99.99,,2013-10-03 18:12:00,
2013-10-03 13:22:00,57.0,57.0,29.87,NNW,340,8.0,-999.0,100,-99.99,,,-99.99,,2013-10-03 18:22:00,
2013-10-03 13:42:00,57.0,57.0,29.88,South,170,9.0,-999.0,100,-99.99,,,-99.99,,2013-10-03 18:42:00,
2013-10-03 14:22:00,57.0,57.0,29.86,North,350,13.0,-999.0,100,-99.99,,,-99.99,,2013-10-03 19:22:00,
2013-10-03 14:42:00,57.0,57.0,29.87,North,350,9.0,-999.0,100,-99.99,,,-99.99,,2013-10-03 19:42:00,
2013-10-03 15:21:00,55.0,55.0,29.87,North,10,7.0,-999.0,100,-99.99,,,-99.99,,2013-10-03 20:21:00,
2013-10-03 15:42:00,55.0,55.0,29.88,North,360,6.0,-999.0,100,-99.99,,,-99.99,,2013-10-03 20:42:00,
2013-10-03 15:52:00,55.0,55.0,29.86,NNE,30,7.0,-999.0,100,-99.99,,,-99.99,,2013-10-03 20:52:00,
2013-10-03 16:02:00,55.0,55.0,29.86,NNE,30,7.0,-999.0,100,-99.99,,,-99.99,,2013-10-03 21:02:00,
2013-10-03 16:12:00,55.0,55.0,29.86,NNE,30,7.0,-999.0,100,-99.99,,,-99.99,,2013-10-03 21:12:00,
2013-10-03 16:21:00,55.0,55.0,29.86,NNE,30,7.0,-999.0,100,-99.99,,,-99.99,,2013-10-03 21:21:00,
2013-10-03 16:43:00,55.0,55.0,29.84,ENE,60,7.0,-999.0,100,-99.99,,,-99.99,,2013-10-03 21:43:00,
2013-10-03 17:13:00,55.0,55.0,29.84,NNE,30,9.0,-999.0,100,-99.99,,,-99.99,,2013-10-03 22:13:00,
2013-10-03 17:23:00,55.0,55.0,29.84,NNE,30,9.0,-999.0,100,-99.99,,,-99.99,,2013-10-03 22:23:00,
2013-10-03 17:43:00,57.0,57.0,29.83,NE,40,12.0,-999.0,100,-99.99,,,-99.99,,2013-10-03 22:43:00,
2013-10-03 17:54:00,57.0,57.0,29.82,ENE,70,10.0,17.0,100,-99.99,,,-99.99,,2013-10-03 22:54:00,
2013-10-03 18:03:00,57.0,57.0,29.82,ENE,70,10.0,17.0,100,-99.99,,,-99.99,,2013-10-03 23:03:00,
2013-10-03 18:12:00,57.0,57.0,29.82,ENE,70,10.0,17.0,100,-99.99,,,-99.99,,2013-10-03 23:12:00,
2013-10-03 18:22:00,57.0,57.0,29.82,ENE,70,10.0,17.0,100,-99.99,,,-99.99,,2013-10-03 23:22:00,
2013-10-03 18:43:00,57.0,57.0,29.84,NE,40,9.0,-999.0,100,-99.99,,,-99.99,,2013-10-03 23:43:00,
2013-10-03 18:52:00,55.0,55.0,29.86,NNE,20,8.0,-999.0,100,-99.99,,,-99.99,,2013-10-03 23:52:00,
2013-10-03 19:02:00,55.0,55.0,29.86,NNE,20,8.0,-999.0,100,-99.99,,,-99.99,,2013-10-04 00:02:00,
2013-10-03 19:12:00,55.0,55.0,29.86,NNE,20,8.0,-999.0,100,-99.99,,,-99.99,,2013-10-04 00:12:00,
2013-10-03 19:22:00,55.0,55.0,29.86,NNE,20,8.0,-999.0,100,-99.99,,,-99.99,,2013-10-04 00:22:00,
2013-10-03 19:42:00,55.0,55.0,29.88,NNE,30,9.0,-999.0,100,-99.99,,,-99.99,,2013-10-04 00:42:00,
2013-10-03 19:52:00,55.0,55.0,29.89,North,10,9.0,-999.0,100,-99.99,,,-99.99,,2013-10-04 00:52:00,
2013-10-03 20:02:00,55.0,55.0,29.89,North,10,9.0,-999.0,100,-99.99,,,-99.99,,2013-10-04 01:02:00,
2013-10-03 20:22:00,55.0,55.0,29.88,North,10,10.0,-999.0,100,-99.99,,,-99.99,,2013-10-04 01:22:00,
2013-10-03 20:42:00,55.0,55.0,29.89,North,10,10.0,-999.0,100,-99.99,,,-99.99,,2013-10-04 01:42:00,
2013-10-03 21:22:00,55.0,55.0,29.91,NNE,30,9.0,-999.0,100,-99.99,,,-99.99,,2013-10-04 02:22:00,
2013-10-03 21:43:00,55.0,55.0,29.91,North,10,9.0,-999.0,100,-99.99,,,-99.99,,2013-10-04 02:43:00,
2013-10-03 21:52:00,55.0,55.0,29.91,NNE,20,7.0,-999.0,100,-99.99,,,-99.99,,2013-10-04 02:52:00,
2013-10-03 22:02:00,55.0,55.0,29.91,NNE,20,7.0,-999.0,100,-99.99,,,-99.99,,2013-10-04 03:02:00,
2013-10-03 22:12:00,55.0,55.0,29.91,NNE,20,7.0,-999.0,100,-99.99,,,-99.99,,2013-10-04 03:12:00,
2013-10-03 22:22:00,55.0,55.0,29.91,NNE,20,7.0,-999.0,100,-99.99,,,-99.99,,2013-10-04 03:22:00,
2013-10-03 22:44:00,55.0,55.0,29.90,North,10,14.0,18.0,100,-99.99,,,-99.99,,2013-10-04 03:44:00,
2013-10-03 23:00:00,55.0,55.0,29.90,North,10,14.0,-999.0,100,-99.99,,,-99.99,,2013-10-04 04:00:00,
2013-10-03 23:49:00,54.0,54.0,29.90,NNE,30,13.0,23.0,100,-99.99,,,-99.99,,2013-10-04 04:49:00,